TeikyoSat 4
1 49396U 21102B   25297.64757968  .00003619  00000-0  23675-3 0  9999
2 49396  97.3962 331.0830 0013075  29.9460 330.2514 15.08308974217208
Z-Sat
1 49399U 21102E   25297.80432615  .00006299  00000-0  33244-3 0  9999
2 49399  97.3649 335.2232 0017223 353.5415   6.5593 15.15755213217750
KOSEN 1
1 49402U 21102H   25297.36181068  .00010744  00000-0  46572-3 0  9996
2 49402  97.3543 339.3001 0013910 325.0752  34.9571 15.22462574218085
HO-113
1 50466U 21131B   25297.83843350  .00000927  00000-0  30216-3 0  9991
2 50466  98.5073  26.5063 0005249  88.1207 272.0583 14.41010471201219
SNUGLITE 2
1 52899U 22065F   25297.65192988  .00001976  00000-0  38924-3 0  9993
2 52899  98.1891  78.4816 0008296  49.6496 310.5430 14.63628001176537
UmKA 1 (RS40S)
1 57172U 23091G   25297.75474446  .00009007  00000-0  45556-3 0  9997
2 57172  97.5411 352.4469 0012975 213.9867 146.0536 15.17197535128262
CubeBel-2 (EU11S)
1 57175U 23091K   25297.77780411  .00014670  00000-0  63771-3 0  9995
2 57175  97.5408 354.5486 0010550 217.5014 142.5487 15.22333384128406
ENSO
1 58470U 23185J   25297.77705397  .00520044  10787-3  15748-2 0  9991
2 58470  97.3513  19.4095 0006787 270.8034  89.2462 15.92069214106517
SONATE-2
1 59112U 24043Q   25297.63491000  .00031323  00000-0  74250-3 0  9992
2 59112  97.5309  72.1982 0009449 346.4139  13.6852 15.41645351 91402
MO-122
1 60209U 24125G   25297.34579477  .00034234  00000-0  79032-3 0  9992
2 60209  97.2590 147.8105 0016714  10.5818 349.5778 15.42317998 72987
GRBBeta
1 60237U 24128C   25297.49924141  .00005194  00000-0  37545-3 0  9990
2 60237  61.9910 321.7202 0057064  86.1009 274.6604 15.04051352 70786
Curium One
1 60242U 24128H   25297.40370192  .00010750  00000-0  69034-3 0  9990
2 60242  61.9804 318.0208 0056768  82.5797 278.1742 15.07596621 70848
ROBUSTA-3A
1 60243U 24128J   25297.65253152  .00008973  00000-0  58835-3 0  9995
2 60243  61.9877 318.4746 0056575  80.1349 280.6125 15.07005068 70868
CatSat
1 60246U 24125J   25297.55996866  .00035972  00000-0  99883-3 0  9997
2 60246  97.2405 145.6110 0036391 327.3521  32.5474 15.36127342 70961
HYPERVIEW-1G (RS66S)
1 61772U 24199AP  25297.78773188  .00043354  00000-0  98089-3 0  9998
2 61772  97.3273 166.7774 0013747  62.6881 297.5764 15.42920600 98058
AO-123
1 61781U 24199AY  25297.79214263  .00012070  00000-0  40862-3 0  9990
2 61781  97.3303 163.8116 0016995  72.3734 287.9361 15.30597290 97858
ZIMSAT 2
1 61783U 24199BA  25297.77683329  .00112532  00000-0  15696-2 0  9993
2 61783  97.3200 168.9763 0012069  58.9704 301.2734 15.56433791101353
HADES-R (SO-124)
1 62690U 25009CK  25297.21150138  .00114466  00000-0  24572-2 0  9999
2 62690  97.3967  18.5116 0002387 294.9664  65.1336 15.44272947 43105
HYDRA-T
1 62692U 25009CM  25297.22555236  .00116380  00000-0  24379-2 0  9992
2 62692  97.3965  18.6446 0002468 284.7862  75.3113 15.44987851 43113
JINJUSat 1B
1 63210U 25052A   25297.65756981  .00020921  00000-0  85242-3 0  9996
2 63210  97.4217 190.1962 0003444 162.3294 197.8064 15.24489734 34104
NUSHSAT 1
1 63211U 25052B   25297.68110941  .00022229  00000-0  88625-3 0  9991
2 63211  97.4203 190.2856 0003176 165.2858 194.8473 15.25207761 34114
TEVEL2-4
1 63213U 25052D   25297.26925441  .00022579  00000-0  91458-3 0  9992
2 63213  97.4121 189.5263 0001843 171.8623 188.2645 15.24675856 34043
TEVEL2-5
1 63214U 25052E   25297.66650456  .00021626  00000-0  87711-3 0  9997
2 63214  97.4121 189.9124 0001860 172.1253 188.0014 15.24640298 34103
TEVEL2-6
1 63215U 25052F   25297.67229284  .00021238  00000-0  86263-3 0  9990
2 63215  97.4123 189.9086 0001815 171.8515 188.2752 15.24596157 34105
TEVEL2-1
1 63217U 25052H   25297.63959284  .00020848  00000-0  85410-3 0  9997
2 63217  97.4098 189.7267 0001260 194.9985 165.1215 15.24311055 34096
TEVEL2-3
1 63218U 25052J   25297.63936025  .00020997  00000-0  85981-3 0  9994
2 63218  97.4099 189.7296 0001270 197.0871 163.0324 15.24325419 34096
TEVEL2-2
1 63219U 25052K   25297.64036976  .00020856  00000-0  85447-3 0  9993
2 63219  97.4098 189.7276 0001258 196.7870 163.3326 15.24309453 34090
TEVEL2-9
1 63237U 25052AD  25297.49149910  .00019040  00000-0  81274-3 0  9996
2 63237  97.4165 189.3516 0004939 253.9611 106.1082 15.22929671 34043
TEVEL2-7
1 63238U 25052AE  25297.63254586  .00019025  00000-0  81475-3 0  9995
2 63238  97.4165 189.4740 0004985 253.3013 106.7677 15.22820154 34069
TEVEL2-8
1 63239U 25052AF  25297.24303874  .00020839  00000-0  89301-3 0  9999
2 63239  97.4165 189.0760 0005085 255.8995 104.1677 15.22777803 34004
HYDRA-W
1 63490U 25052BL  25297.23037525  .00070102  00000-0  21440-2 0  9991
2 63490  97.4099 190.6039 0005534 240.5436 119.5255 15.33575390 34119
HADES-ICM (SO-125)
1 63492U 25052BN  25297.63326943  .00053976  00000-0  17144-2 0  9998
2 63492  97.4105 190.8472 0006135 245.8772 114.1828 15.32442980 34160
Dragonfly
1 65729U 98067XH  25297.60907671  .00102685  00000-0  13318-2 0  9990
2 65729  51.6327  24.4650 0002247  42.8303 317.2864 15.58028769  5479
RSP-03
1 65732U 98067XL  25297.48860351  .00086512  00000-0  11597-2 0  9990
2 65732  51.6327  25.1604 0004640  10.7058 349.4032 15.57216979  5464
GHS-01
1 65733U 98067XM  25297.53978843  .00113075  00000-0  14359-2 0  9997
2 65733  51.6339  24.7533 0002596  36.1697 323.9470 15.58542358  5471
BOTAN
1 65942U 98067XP  25297.24646889  .00088273  00000-0  13925-2 0  9998
2 65942  51.6346  27.2914 0004142 321.6497  38.4198 15.52768994  2158
